Weather History for Tunica, MS

Change the Weather History Date:

Monday, September 30, 2013

  Actual Average (KMEM) Record (KMEM)
Temperature  
Mean Temperature 73 °F 70 °F  
Max Temperature 78 °F 80 °F 96 °F (1953)
Min Temperature 68 °F 59 °F 36 °F (1949)
Degree Days  
Heating Degree Days 0 1  
Month to date heating degree days 10  
Since 1 July heating degree days 11  
Cooling Degree Days 8 6  
Month to date cooling degree days 316  
Year to date cooling degree days 2151  
Growing Degree Days 23 (Base 50)    
Moisture  
Dew Point 67 °F    
Average Humidity 87    
Maximum Humidity 94    
Minimum Humidity 69    
Precipitation  
Precipitation 0.08 in 0.12 in 2.10 in (1898)
Month to date precipitation 3.09  
Year to date precipitation 38.47  
Snow  
Snow 0.00 in 0.00 in 0.00 in (2002)
Month to date snowfall 0.0  
Since 1 July snowfall 0.0  
Since 1 September snowfall 0.0  
Snow Depth -    
Sea Level Pressure  
Sea Level Pressure 29.95 in    
Wind  
Wind Speed 6 mph (SE)    
Max Wind Speed 10 mph    
Max Gust Speed -    
Visibility 7 miles    
Events Rain    
T = Trace of Precipitation, MM = Missing Value Source: NWS Daily Summary

Daily Weather History Graph

Daily Weather History Graph

Search for Another Location

Airport:

Trip Planner

Search our weather history database for the weather conditions in past years. The results will help you decide how hot, cold, wet, or windy it might be!

Date:

Astronomy

Sep. 30, 2013 Rise Set
Actual Time 6:55 AM CDT 6:46 PM CDT
Civil Twilight 6:30 AM CDT 7:11 PM CDT
Nautical Twilight 6:01 AM CDT 7:40 PM CDT
Astronomical Twilight 5:31 AM CDT 8:10 PM CDT
Moon 2:41 AM CDT (9/30) 4:09 PM CDT (9/30)
Length of Visible Light 12h 41m
Length of Day
11h 50m
Waning Crescent, 19% of the Moon is Illuminated
Sep 30
Waning Crescent
Oct 4
New
Oct 11
First Quarter
Oct 18
Full
Oct 26
Last Quarter

Hourly Weather History & Observations

Time (CDT) Temp. Dew Point Humidity Pressure Visibility Wind Dir Wind Speed Gust Speed Precip Events Conditions
12:15 AM 68.0 °F 64.4 °F 88% 29.96 in 3.0 mi ESE 5.8 mph - N/A   Overcast
12:35 AM 68.0 °F 64.4 °F 88% 29.95 in 2.5 mi ESE 5.8 mph - N/A   Overcast
12:55 AM 68.0 °F 64.4 °F 88% 29.95 in 5.0 mi SE 5.8 mph - N/A   Overcast
1:15 AM 68.0 °F 64.4 °F 88% 29.95 in 4.0 mi SE 3.5 mph - N/A   Overcast
1:35 AM 68.0 °F 64.4 °F 88% 29.95 in 3.0 mi SE 4.6 mph - N/A   Overcast
1:55 AM 68.0 °F 64.4 °F 88% 29.95 in 2.5 mi SE 4.6 mph - N/A   Overcast
2:15 AM 68.0 °F 64.4 °F 88% 29.95 in 2.0 mi SE 3.5 mph - N/A   Overcast
2:35 AM 68.0 °F 64.4 °F 88% 29.95 in 2.5 mi Calm Calm - N/A   Overcast
2:55 AM 68.0 °F 66.2 °F 94% 29.95 in 4.0 mi SE 3.5 mph - N/A   Overcast
3:15 AM 68.0 °F 66.2 °F 94% 29.94 in 3.0 mi SSE 4.6 mph - 0.01 in   Light Drizzle
3:35 AM 68.0 °F 66.2 °F 94% 29.94 in 5.0 mi SE 4.6 mph - 0.01 in Rain Light Rain
3:55 AM 68.0 °F 66.2 °F 94% 29.94 in 3.0 mi SE 5.8 mph - 0.01 in   Overcast
4:15 AM 68.0 °F 66.2 °F 94% 29.94 in 3.0 mi SE 5.8 mph - N/A   Overcast
4:35 AM 68.0 °F 66.2 °F 94% 29.94 in 3.0 mi SSE 4.6 mph - N/A   Overcast
4:55 AM 68.0 °F 66.2 °F 94% 29.94 in 3.0 mi SE 5.8 mph - 0.02 in Rain Heavy Rain
5:15 AM 68.0 °F 66.2 °F 94% 29.94 in 3.0 mi SE 5.8 mph - 0.04 in Rain Rain
5:35 AM 68.0 °F 66.2 °F 94% 29.94 in 2.5 mi SE 6.9 mph - 0.04 in Rain Light Rain
5:55 AM 68.0 °F 66.2 °F 94% 29.94 in 4.0 mi SSE 6.9 mph - 0.04 in   Overcast
6:15 AM 68.0 °F 66.2 °F 94% 29.95 in 5.0 mi SSE 6.9 mph - N/A   Overcast
6:35 AM 68.0 °F 66.2 °F 94% 29.95 in 5.0 mi SSE 4.6 mph - 0.01 in   Drizzle
6:55 AM 68.0 °F 66.2 °F 94% 29.95 in 4.0 mi SSE 4.6 mph - 0.01 in   Overcast
7:15 AM 68.0 °F 66.2 °F 94% 29.95 in 4.0 mi SSE 5.8 mph - N/A   Overcast
7:35 AM 68.0 °F 66.2 °F 94% 29.95 in 3.0 mi South 5.8 mph - N/A   Overcast
7:55 AM 68.0 °F 66.2 °F 94% 29.96 in 4.0 mi South 6.9 mph - N/A   Overcast
8:15 AM 68.0 °F 66.2 °F 94% 29.96 in 4.0 mi South 8.1 mph - N/A   Overcast
8:35 AM 69.8 °F 68.0 °F 94% 29.97 in 5.0 mi South 8.1 mph - N/A   Overcast
8:55 AM 69.8 °F 68.0 °F 94% 29.97 in 5.0 mi South 8.1 mph - N/A   Overcast
9:15 AM 69.8 °F 68.0 °F 94% 29.97 in 7.0 mi South 6.9 mph - N/A   Overcast
9:35 AM 69.8 °F 68.0 °F 94% 29.98 in 7.0 mi SSE 6.9 mph - N/A   Mostly Cloudy
9:55 AM 69.8 °F 68.0 °F 94% 29.98 in 7.0 mi SSE 8.1 mph - N/A   Mostly Cloudy
10:15 AM 71.6 °F 68.0 °F 88% 29.97 in 10.0 mi SSE 8.1 mph - N/A   Mostly Cloudy
10:35 AM 71.6 °F 68.0 °F 88% 29.98 in 10.0 mi SSE 8.1 mph - N/A   Overcast
10:55 AM 71.6 °F 68.0 °F 88% 29.98 in 10.0 mi SSE 6.9 mph - N/A   Mostly Cloudy
11:15 AM 73.4 °F 68.0 °F 83% 29.98 in 10.0 mi SSE 8.1 mph - N/A   Mostly Cloudy
11:35 AM 73.4 °F 68.0 °F 83% 29.98 in 10.0 mi SSE 9.2 mph - N/A   Overcast
11:55 AM 73.4 °F 68.0 °F 83% 29.98 in 10.0 mi SSE 9.2 mph - N/A   Overcast
12:15 PM 75.2 °F 68.0 °F 78% 29.98 in 10.0 mi South 10.4 mph - N/A   Overcast
12:35 PM 75.2 °F 66.2 °F 73% 29.98 in 10.0 mi South 6.9 mph - N/A   Overcast
12:55 PM 75.2 °F 68.0 °F 78% 29.96 in 10.0 mi SSE 8.1 mph - N/A   Overcast
1:15 PM 77.0 °F 68.0 °F 74% 29.96 in 10.0 mi SSE 10.4 mph - N/A   Mostly Cloudy
1:35 PM 75.2 °F 68.0 °F 78% 29.95 in 10.0 mi SE 8.1 mph - N/A   Overcast
1:55 PM 77.0 °F 68.0 °F 74% 29.94 in 10.0 mi SE 9.2 mph - N/A   Overcast
2:15 PM 77.0 °F 68.0 °F 74% 29.94 in 10.0 mi SSE 8.1 mph - N/A   Mostly Cloudy
2:35 PM 77.0 °F 68.0 °F 74% 29.93 in 10.0 mi SSE 6.9 mph - N/A   Overcast
2:55 PM 77.0 °F 68.0 °F 74% 29.93 in 10.0 mi SE 8.1 mph - N/A   Overcast
3:15 PM 78.8 °F 69.8 °F 74% 29.93 in 10.0 mi SE 10.4 mph - N/A   Mostly Cloudy
3:35 PM 77.0 °F 68.0 °F 74% 29.92 in 10.0 mi SE 8.1 mph - N/A   Mostly Cloudy
3:55 PM 77.0 °F 69.8 °F 78% 29.92 in 10.0 mi SE 6.9 mph - N/A   Overcast
4:15 PM 77.0 °F 69.8 °F 78% 29.91 in 10.0 mi SE 8.1 mph - N/A   Mostly Cloudy
4:35 PM 78.8 °F 68.0 °F 69% 29.91 in 10.0 mi SE 4.6 mph - N/A   Mostly Cloudy
4:55 PM 77.0 °F 69.8 °F 78% 29.92 in 10.0 mi ESE 6.9 mph - N/A   Mostly Cloudy
5:15 PM 77.0 °F 69.8 °F 78% 29.92 in 10.0 mi East 6.9 mph - N/A   Overcast
5:35 PM 77.0 °F 69.8 °F 78% 29.92 in 10.0 mi East 8.1 mph - N/A   Mostly Cloudy
5:55 PM 75.2 °F 69.8 °F 83% 29.92 in 10.0 mi ESE 5.8 mph - N/A   Scattered Clouds
6:15 PM 73.4 °F 69.8 °F 88% 29.93 in 10.0 mi ESE 6.9 mph - N/A   Scattered Clouds
6:35 PM 73.4 °F 69.8 °F 88% 29.93 in 10.0 mi ESE 8.1 mph - N/A   Clear
6:55 PM 73.4 °F 68.0 °F 83% 29.94 in 10.0 mi ESE 6.9 mph - N/A   Clear
7:15 PM 71.6 °F 68.0 °F 88% 29.94 in 10.0 mi ESE 8.1 mph - N/A   Clear
7:35 PM 71.6 °F 68.0 °F 88% 29.94 in 10.0 mi ESE 5.8 mph - N/A   Clear
7:55 PM 71.6 °F 68.0 °F 88% 29.95 in 10.0 mi ESE 6.9 mph - N/A   Clear
8:15 PM 69.8 °F 68.0 °F 94% 29.95 in 10.0 mi ESE 8.1 mph - N/A   Scattered Clouds
8:35 PM 69.8 °F 68.0 °F 94% 29.96 in 10.0 mi ESE 6.9 mph - N/A   Clear
8:55 PM 69.8 °F 68.0 °F 94% 29.97 in 10.0 mi SE 6.9 mph - N/A   Clear
9:15 PM 69.8 °F 68.0 °F 94% 29.97 in 10.0 mi SE 6.9 mph - N/A   Mostly Cloudy
9:35 PM 69.8 °F 68.0 °F 94% 29.97 in 10.0 mi SE 8.1 mph - N/A   Mostly Cloudy
9:55 PM 69.8 °F 68.0 °F 94% 29.97 in 10.0 mi SE 9.2 mph - N/A   Mostly Cloudy
10:15 PM 69.8 °F 66.2 °F 88% 29.97 in 10.0 mi SE 9.2 mph - N/A   Scattered Clouds
10:35 PM 69.8 °F 66.2 °F 88% 29.98 in 10.0 mi SE 9.2 mph - N/A   Scattered Clouds
10:55 PM 69.8 °F 66.2 °F 88% 29.98 in 10.0 mi SE 8.1 mph - N/A   Scattered Clouds
11:15 PM 68.0 °F 66.2 °F 94% 29.98 in 7.0 mi SSE 6.9 mph - N/A   Clear
11:35 PM 68.0 °F 64.4 °F 88% 29.98 in 7.0 mi SSE 5.8 mph - N/A   Clear
11:55 PM 68.0 °F 66.2 °F 94% 29.97 in 7.0 mi SE 5.8 mph - N/A   Scattered Clouds